カタログに戻る

METEOR 2-5 DEB

LostPO
NORAD 38535·DEBRIS·🇷🇺 Russia

打ち上げ Oct 31, 1979 から Plesetsk Cosmodrome

Loading…

次のパス (今後24時間)

TLE

古いSource: Space-Track

元期: Sep 7, 2022, 15:57 UTC

1 38535U 79095CC  22250.66494828  .00006114  00000-0  22516-2 0  9992
2 38535  81.2010  21.7087 0019033 216.6878 143.3003 14.32400904714954

AllMySatでMETEOR 2-5 DEBをリアルタイム追跡

Download on the App Store